Location: Seasalter
(51.3333°N, 1.0167°E)
Time: 04:54:53
(UTC+00:00)

ATLAS 5 CENTAUR R/B - Pass Details

Date: 27 April 2024
Orbit: 421 x 1170 km, 63.3° (Epoch: 18 May)

Event Time Altitude Azimuth Distance (km) Brightness Sun altitude
Rises 21:40:19 0° 309° (NW) 2,656 6.2 -18.3°
Reaches altitude 10° 21:42:52 10° 328° (NNW) 1,874 5.3 -18.6°
Maximum altitude 21:45:58 19° 15° (NNE) 1,492 4.0 -18.8°
Drops below altitude 10° 21:49:31 10° 62° (ENE) 2,191 4.3 -19.1°
Sets 21:52:47 0° 79° (ENE) 3,279 5.1 -19.4°
